Location: Newark
(49.8348°N, 24.0280°E)
Time: 00:51:38
(UTC+00:00)

Explorer 7 - Pass Details

Date: 27 January 2020
Orbit: 485 x 679 km, 50.3° (Epoch: 21 February)

Event Time Altitude Azimuth Distance (km) Brightness Sun altitude
Rises 00:23:58 0° 281° (W) 2,551 - -52.1°
Reaches altitude 10° 00:26:07 10° 280° (W) 1,674 - -51.9°
Maximum altitude 00:29:53 81° 194° (SSW) 505 - -51.5°
Drops below altitude 10° 00:33:46 10° 107° (ESE) 1,723 - -51.0°
Sets 00:36:00 0° 106° (ESE) 2,633 - -50.7°
